P/2018 A5 ( PanSTARRS )

Japanese version
Home page
Updated on February 13, 2018

---------------------------------------------------------------------

* Profile

Discovery Date January 13, 2018
Magnitude 21.4 mag
Discoverer Pan-STARRS 1 telescope (Haleakala)

* Orbital Elements

Epoch 2017 Sept. 4.0 TT = JDT 2458000.5
T 2017 Sept. 23.83268 TT                                MPCW
q   2.6938285            (2000.0)            P               Q
n   0.07340661     Peri.  359.68244     +0.04295249     -0.91564766
a   5.6490999      Node    87.82929     +0.91751486     -0.12216386
e   0.5231402      Incl.   23.57614     +0.39537522     +0.38296912
P  13.43
From 30 observations 2017 Nov. 21-2018 Jan. 17, mean residual 0".3.

* Magnitudes Graph

        m1 = 15.0 + 5 log d + 10.0 log r

---------------------------------------------------------------------

The orbital elements are published on M.P.E.C. 2018-B155.
The magnitudes graphs are made with Comet for Windows.

---------------------------------------------------------------------

Copyright(C) Seiichi Yoshida (comet@aerith.net). All rights reserved.